TimeEST,TemperatureF,Dew PointF,Humidity,Sea Level PressureIn,VisibilityMPH,Wind Direction,Wind SpeedMPH,Gust SpeedMPH,PrecipitationIn,Events,Conditions,WindDirDegrees,DateUTC
12:53 AM,54.0,50.0,86,29.92,5.0,SSW,6.9,-,0.13,Rain,Light Rain,210,2012-12-02 05:53:00
1:17 AM,55.4,48.2,77,29.90,7.0,SSW,9.2,-,0.02,Rain,Light Rain,200,2012-12-02 06:17:00
1:26 AM,55.4,48.2,77,29.90,8.0,SSW,9.2,-,0.02,Rain,Light Rain,210,2012-12-02 06:26:00
1:53 AM,54.0,48.9,83,29.91,4.0,SW,10.4,-,0.07,Rain,Light Rain,220,2012-12-02 06:53:00
2:09 AM,53.6,50.0,88,29.91,4.0,SW,8.1,-,0.04,Rain,Rain,220,2012-12-02 07:09:00
2:32 AM,53.6,48.2,82,29.90,9.0,SSW,9.2,-,N/A,Rain,Light Rain,200,2012-12-02 07:32:00
2:53 AM,53.1,48.9,86,29.90,5.0,South,9.2,-,0.08,Rain,Light Rain,190,2012-12-02 07:53:00
3:53 AM,53.1,48.9,86,29.89,9.0,SSW,8.1,-,0.01,,Overcast,200,2012-12-02 08:53:00
4:53 AM,52.0,48.9,89,29.89,6.0,SW,9.2,-,0.02,Rain,Light Rain,220,2012-12-02 09:53:00
5:02 AM,53.6,48.2,82,29.88,6.0,SW,11.5,-,0.01,Rain,Light Rain,220,2012-12-02 10:02:00
5:16 AM,51.8,48.2,88,29.88,4.0,SSW,9.2,-,0.04,Rain,Light Rain,210,2012-12-02 10:16:00
5:41 AM,51.8,48.2,88,29.87,2.5,SW,11.5,-,0.17,Rain,Heavy Rain,220,2012-12-02 10:41:00
5:50 AM,51.8,48.2,88,29.88,6.0,SSW,11.5,-,0.17,Rain,Light Rain,210,2012-12-02 10:50:00
5:53 AM,52.0,48.9,89,29.89,7.0,SSW,10.4,-,0.17,Rain,Light Rain,210,2012-12-02 10:53:00
6:41 AM,53.6,50.0,88,29.88,7.0,SSW,9.2,-,0.00,,Overcast,210,2012-12-02 11:41:00
6:53 AM,53.1,50.0,89,29.89,6.0,SSW,10.4,-,0.00,,Overcast,210,2012-12-02 11:53:00
7:53 AM,53.1,50.0,89,29.89,9.0,SSW,9.2,-,N/A,,Overcast,200,2012-12-02 12:53:00
8:53 AM,53.1,48.9,86,29.89,5.0,SW,13.8,-,N/A,,Overcast,220,2012-12-02 13:53:00
9:18 AM,53.6,50.0,88,29.88,6.0,SW,12.7,-,N/A,,Overcast,230,2012-12-02 14:18:00
9:48 AM,53.6,50.0,88,29.88,2.5,SW,13.8,-,N/A,,Overcast,230,2012-12-02 14:48:00
9:53 AM,53.1,51.1,93,29.89,2.5,SW,13.8,-,N/A,,Overcast,220,2012-12-02 14:53:00
10:53 AM,54.0,51.1,90,29.91,2.5,WSW,13.8,-,N/A,,Overcast,250,2012-12-02 15:53:00
11:53 AM,55.0,52.0,89,29.91,6.0,West,11.5,-,N/A,,Overcast,260,2012-12-02 16:53:00
12:20 PM,57.2,51.8,82,29.90,6.0,West,12.7,-,N/A,,Haze,260,2012-12-02 17:20:00
12:27 PM,57.2,51.8,82,29.90,7.0,WSW,12.7,-,N/A,,Overcast,250,2012-12-02 17:27:00
12:38 PM,57.2,51.8,82,29.90,7.0,West,13.8,-,N/A,,Overcast,270,2012-12-02 17:38:00
12:53 PM,55.9,52.0,87,29.91,7.0,West,11.5,-,N/A,,Overcast,260,2012-12-02 17:53:00
1:08 PM,55.4,50.0,82,29.91,10.0,West,12.7,-,N/A,,Overcast,270,2012-12-02 18:08:00
1:53 PM,55.0,48.9,80,29.92,10.0,WNW,13.8,-,N/A,,Overcast,290,2012-12-02 18:53:00
2:53 PM,54.0,46.0,75,29.93,9.0,WNW,11.5,-,N/A,,Overcast,290,2012-12-02 19:53:00
3:53 PM,53.1,44.1,71,29.98,10.0,West,10.4,-,N/A,,Overcast,280,2012-12-02 20:53:00
4:53 PM,51.1,43.0,74,30.01,9.0,WNW,6.9,-,N/A,,Overcast,290,2012-12-02 21:53:00
5:53 PM,50.0,42.1,74,30.04,10.0,NW,4.6,-,N/A,,Overcast,310,2012-12-02 22:53:00
6:53 PM,48.9,41.0,74,30.07,10.0,WNW,5.8,-,N/A,,Overcast,290,2012-12-02 23:53:00
7:53 PM,48.0,41.0,77,30.10,10.0,North,4.6,-,N/A,,Overcast,360,2012-12-03 00:53:00
8:53 PM,46.9,41.0,80,30.12,10.0,North,4.6,-,N/A,,Overcast,350,2012-12-03 01:53:00
9:53 PM,46.0,41.0,83,30.12,9.0,ENE,3.5,-,N/A,,Overcast,60,2012-12-03 02:53:00
10:53 PM,45.0,39.9,82,30.12,10.0,NE,4.6,-,N/A,,Overcast,50,2012-12-03 03:53:00
11:53 PM,44.1,39.0,82,30.14,10.0,East,4.6,-,N/A,,Overcast,100,2012-12-03 04:53:00